FLI481 EKYT-EKVG

Flight info

Callsign FLI481
Flight time 1h 43m
Altitude 32000
Route AMSEV DCT GUNPA/M074F320 DCT ROBUR
Aircraft A20N/M-SDE2E3FGHIRWXY/LB1

Departure

Time 2026-05-04 17:03
Airport Aalborg Airport (EKYT)

Arrival

Time 2026-05-04 18:46
Airport Vágar Airport (EKVG)
Time Latitude Longitude Altitude Speed Heading
2026-05-04 17:01 57.09400 9.86753 18 ft 19 kts 83°
2026-05-04 17:01 57.09434 9.87280 18 ft 21 kts 83°
2026-05-04 17:02 57.09488 9.87717 18 ft 15 kts 32°
2026-05-04 17:02 57.09646 9.87622 18 ft 11 kts 273°
2026-05-04 17:03 57.09635 9.87458 18 ft 28 kts 264°
2026-05-04 17:03 57.09585 9.86562 18 ft 109 kts 264°
2026-05-04 17:03 57.09281 9.82704 815 ft 172 kts 260°
2026-05-04 17:04 57.08909 9.77763 1845 ft 219 kts 265°
2026-05-04 17:04 57.09928 9.72102 3259 ft 256 kts 313°
2026-05-04 17:05 57.12689 9.67771 5231 ft 264 kts 317°
2026-05-04 17:05 57.15519 9.63353 7142 ft 272 kts 317°
2026-05-04 17:06 57.18443 9.58768 9011 ft 279 kts 317°
2026-05-04 17:06 57.19933 9.56428 9943 ft 282 kts 316°
2026-05-04 17:07 57.23102 9.51430 10802 ft 321 kts 316°
2026-05-04 17:07 57.24254 9.49610 11073 ft 332 kts 316°
2026-05-04 17:07 57.26610 9.45900 12114 ft 337 kts 316°
2026-05-04 17:07 57.28405 9.43071 12915 ft 341 kts 316°
2026-05-04 17:08 57.30215 9.40211 13712 ft 344 kts 316°
2026-05-04 17:08 57.33880 9.34398 15085 ft 352 kts 315°
2026-05-04 17:08 57.35753 9.31421 15772 ft 356 kts 315°
2026-05-04 17:09 57.37646 9.28407 16440 ft 360 kts 314°
2026-05-04 17:09 57.39541 9.25383 17097 ft 364 kts 314°
2026-05-04 17:09 57.41463 9.22314 17762 ft 368 kts 314°
2026-05-04 17:10 57.45381 9.16042 18985 ft 374 kts 313°
2026-05-04 17:10 57.51328 9.06489 20761 ft 382 kts 313°
2026-05-04 17:11 57.53344 9.03240 21337 ft 384 kts 313°
2026-05-04 17:11 57.55375 8.99963 21902 ft 387 kts 313°
2026-05-04 17:11 57.59473 8.93336 23049 ft 393 kts 312°
2026-05-04 17:12 57.60846 8.91111 23412 ft 395 kts 312°
2026-05-04 17:12 57.65024 8.84326 24357 ft 400 kts 312°
2026-05-04 17:13 57.70677 8.73220 25653 ft 400 kts 303°
2026-05-04 17:14 57.76086 8.61189 26905 ft 408 kts 303°
2026-05-04 17:14 57.77920 8.57115 27297 ft 410 kts 303°
2026-05-04 17:14 57.81623 8.48864 28068 ft 415 kts 303°
2026-05-04 17:15 57.83486 8.44699 28421 ft 417 kts 303°
2026-05-04 17:15 57.87246 8.36274 29107 ft 422 kts 302°
2026-05-04 17:16 57.91009 8.27802 29769 ft 427 kts 302°
2026-05-04 17:16 57.96734 8.14842 30741 ft 430 kts 302°
2026-05-04 17:17 57.98649 8.10492 31060 ft 431 kts 302°
2026-05-04 17:17 58.04355 7.97486 31789 ft 425 kts 301°
2026-05-04 17:18 58.06217 7.93221 31864 ft 425 kts 301°
2026-05-04 17:19 58.13733 7.75923 31869 ft 425 kts 301°
2026-05-04 17:20 58.21199 7.58622 31873 ft 424 kts 301°
2026-05-04 17:20 58.26808 7.45535 31885 ft 425 kts 301°
2026-05-04 17:21 58.34241 7.28085 31901 ft 425 kts 301°
2026-05-04 17:22 58.37955 7.19321 31891 ft 423 kts 301°
2026-05-04 17:23 58.45311 7.01866 31880 ft 423 kts 300°
2026-05-04 17:24 58.50816 6.88707 31882 ft 421 kts 301°
2026-05-04 17:25 58.58132 6.71118 31884 ft 422 kts 300°
2026-05-04 17:26 58.65238 6.53903 31889 ft 421 kts 301°
2026-05-04 17:27 58.74303 6.31756 31895 ft 421 kts 301°
2026-05-04 17:27 58.77816 6.23104 31901 ft 397 kts 303°
2026-05-04 17:28 58.81196 6.14758 31906 ft 400 kts 302°
2026-05-04 17:29 58.91391 5.89414 31935 ft 397 kts 302°
2026-05-04 17:31 58.99798 5.68329 31936 ft 393 kts 302°
2026-05-04 17:32 59.08074 5.47383 31903 ft 390 kts 302°
2026-05-04 17:33 59.14636 5.30638 31906 ft 389 kts 302°
2026-05-04 17:34 59.21167 5.13853 31918 ft 389 kts 302°
2026-05-04 17:35 59.29337 4.92686 31930 ft 390 kts 301°
2026-05-04 17:36 59.32578 4.84234 31936 ft 390 kts 301°
2026-05-04 17:36 59.35821 4.75747 31938 ft 391 kts 301°
2026-05-04 17:37 59.39091 4.67160 31941 ft 391 kts 301°
2026-05-04 17:37 59.42338 4.58599 31943 ft 391 kts 301°
2026-05-04 17:38 59.45569 4.50053 31943 ft 391 kts 301°
2026-05-04 17:38 59.48806 4.41456 31950 ft 391 kts 301°
2026-05-04 17:39 59.53643 4.28553 31953 ft 391 kts 301°
2026-05-04 17:39 59.56864 4.19921 31953 ft 390 kts 301°
2026-05-04 17:40 59.60078 4.11276 31952 ft 390 kts 301°
2026-05-04 17:40 59.63258 4.02690 31945 ft 389 kts 301°
2026-05-04 17:41 59.66451 3.94037 31942 ft 389 kts 301°
2026-05-04 17:41 59.69644 3.85353 31944 ft 389 kts 300°
2026-05-04 17:42 59.72802 3.76732 31944 ft 388 kts 300°
2026-05-04 17:42 59.75968 3.68056 31941 ft 388 kts 300°
2026-05-04 17:43 59.79134 3.59349 31944 ft 388 kts 300°
2026-05-04 17:43 59.82289 3.50640 31946 ft 388 kts 300°
2026-05-04 17:44 59.85415 3.41979 31944 ft 387 kts 300°
2026-05-04 17:44 59.88552 3.33256 31949 ft 387 kts 300°
2026-05-04 17:45 59.91689 3.24497 31950 ft 387 kts 300°
2026-05-04 17:45 59.94817 3.15736 31954 ft 387 kts 300°
2026-05-04 17:46 59.97909 3.07038 31959 ft 387 kts 300°
2026-05-04 17:46 60.01019 2.98261 31951 ft 386 kts 300°
2026-05-04 17:47 60.04125 2.89459 31953 ft 386 kts 300°
2026-05-04 17:47 60.07219 2.80660 31955 ft 386 kts 300°
2026-05-04 17:48 60.10285 2.71908 31955 ft 386 kts 300°
2026-05-04 17:48 60.13370 2.63068 31955 ft 386 kts 300°
2026-05-04 17:49 60.16442 2.54233 31951 ft 385 kts 300°
2026-05-04 17:49 60.19486 2.45442 31960 ft 385 kts 299°
2026-05-04 17:50 60.22546 2.36575 31958 ft 385 kts 299°
2026-05-04 17:50 60.25594 2.27705 31960 ft 385 kts 299°
2026-05-04 17:51 60.28635 2.18825 31969 ft 385 kts 299°
2026-05-04 17:51 60.31654 2.09974 31960 ft 384 kts 299°
2026-05-04 17:52 60.34683 2.01061 31972 ft 384 kts 299°
2026-05-04 17:52 60.37705 1.92136 31970 ft 384 kts 299°
2026-05-04 17:53 60.40701 1.83249 31972 ft 384 kts 299°
2026-05-04 17:53 60.43716 1.74275 31973 ft 384 kts 299°
2026-05-04 17:54 60.46696 1.65372 31974 ft 383 kts 299°
2026-05-04 17:54 60.49688 1.56397 31971 ft 383 kts 298°
2026-05-04 17:55 60.52647 1.47486 31976 ft 383 kts 298°
2026-05-04 17:55 60.55618 1.38504 31977 ft 382 kts 298°
2026-05-04 17:56 60.58587 1.29494 31977 ft 382 kts 298°
2026-05-04 17:56 60.61524 1.20547 31979 ft 382 kts 298°
2026-05-04 17:57 60.64474 1.11526 31975 ft 381 kts 298°
2026-05-04 17:57 60.67399 1.02547 31969 ft 381 kts 298°
2026-05-04 17:58 60.70325 0.93530 31975 ft 381 kts 298°
2026-05-04 17:58 60.73249 0.84483 31977 ft 380 kts 298°
2026-05-04 17:59 60.76144 0.75489 31981 ft 380 kts 298°
2026-05-04 18:00 60.80018 0.63401 31981 ft 380 kts 298°
2026-05-04 18:00 60.82897 0.54377 31981 ft 380 kts 298°
2026-05-04 18:01 60.85785 0.45290 31987 ft 380 kts 298°
2026-05-04 18:01 60.88666 0.36200 31987 ft 379 kts 298°
2026-05-04 18:02 60.92979 0.22545 31992 ft 379 kts 298°
2026-05-04 18:02 60.95829 0.13480 31990 ft 378 kts 298°
2026-05-04 18:03 60.98576 0.04262 31991 ft 376 kts 294°
2026-05-04 18:03 61.00793 -0.05423 31997 ft 373 kts 289°
2026-05-04 18:04 61.02480 -0.15524 31991 ft 371 kts 286°
2026-05-04 18:05 61.04946 -0.30608 31987 ft 371 kts 287°
2026-05-04 18:05 61.06578 -0.40718 31988 ft 370 kts 286°
2026-05-04 18:06 61.08982 -0.55827 31988 ft 370 kts 286°
2026-05-04 18:06 61.10582 -0.65969 31989 ft 369 kts 286°
2026-05-04 18:07 61.12159 -0.76020 31988 ft 369 kts 286°
2026-05-04 18:07 61.13744 -0.86183 31988 ft 369 kts 286°
2026-05-04 18:08 61.15304 -0.96238 31994 ft 369 kts 286°
2026-05-04 18:08 61.16869 -1.06387 31995 ft 369 kts 286°
2026-05-04 18:09 61.19969 -1.26671 32002 ft 369 kts 285°
2026-05-04 18:10 61.21500 -1.36773 32004 ft 369 kts 285°
2026-05-04 18:10 61.23030 -1.46933 32007 ft 368 kts 285°
2026-05-04 18:11 61.24552 -1.57103 32010 ft 368 kts 285°
2026-05-04 18:11 61.26057 -1.67214 32008 ft 367 kts 285°
2026-05-04 18:12 61.27559 -1.77365 32004 ft 371 kts 285°
2026-05-04 18:12 61.29061 -1.87584 32005 ft 370 kts 285°
2026-05-04 18:13 61.30561 -1.97843 31823 ft 370 kts 285°
2026-05-04 18:13 61.32029 -2.07938 31285 ft 360 kts 285°
2026-05-04 18:14 61.32749 -2.12909 31031 ft 356 kts 285°
2026-05-04 18:14 61.33461 -2.17850 30783 ft 353 kts 284°
2026-05-04 18:14 61.34156 -2.22686 30544 ft 350 kts 284°
2026-05-04 18:15 61.35533 -2.32307 30064 ft 343 kts 284°
2026-05-04 18:15 61.36881 -2.41790 29499 ft 339 kts 284°
2026-05-04 18:15 61.37545 -2.46487 29233 ft 340 kts 284°
2026-05-04 18:16 61.38227 -2.51332 28986 ft 355 kts 284°
2026-05-04 18:16 61.38927 -2.56307 28737 ft 356 kts 284°
2026-05-04 18:16 61.39622 -2.61253 28485 ft 353 kts 284°
2026-05-04 18:17 61.40984 -2.70975 28004 ft 349 kts 284°
2026-05-04 18:17 61.41661 -2.75843 27756 ft 348 kts 284°
2026-05-04 18:17 61.43001 -2.85514 27285 ft 344 kts 284°
2026-05-04 18:18 61.43665 -2.90324 27042 ft 343 kts 284°
2026-05-04 18:18 61.44313 -2.95041 26813 ft 341 kts 284°
2026-05-04 18:18 61.44967 -2.99808 26579 ft 340 kts 284°
2026-05-04 18:18 61.45616 -3.04553 26354 ft 338 kts 284°
2026-05-04 18:19 61.46900 -3.13986 25892 ft 335 kts 284°
2026-05-04 18:19 61.47539 -3.18707 25675 ft 345 kts 284°
2026-05-04 18:19 61.48209 -3.23672 25456 ft 359 kts 284°
2026-05-04 18:20 61.48888 -3.28718 25233 ft 358 kts 285°
2026-05-04 18:20 61.49551 -3.33652 25015 ft 355 kts 285°
2026-05-04 18:20 61.50220 -3.38645 24803 ft 354 kts 285°
2026-05-04 18:20 61.50884 -3.43618 24584 ft 353 kts 285°
2026-05-04 18:21 61.51542 -3.48567 24369 ft 351 kts 285°
2026-05-04 18:21 61.52195 -3.53485 24157 ft 350 kts 285°
2026-05-04 18:21 61.52835 -3.58334 23950 ft 349 kts 285°
2026-05-04 18:21 61.53480 -3.63231 23738 ft 347 kts 285°
2026-05-04 18:22 61.54122 -3.68114 23515 ft 346 kts 285°
2026-05-04 18:22 61.54759 -3.72979 23262 ft 345 kts 285°
2026-05-04 18:22 61.55385 -3.77777 23009 ft 344 kts 285°
2026-05-04 18:22 61.56015 -3.82614 22757 ft 343 kts 285°
2026-05-04 18:23 61.56639 -3.87430 22515 ft 342 kts 285°
2026-05-04 18:23 61.57266 -3.92276 22270 ft 341 kts 285°
2026-05-04 18:23 61.57885 -3.97080 22027 ft 340 kts 285°
2026-05-04 18:23 61.58493 -4.01809 21785 ft 340 kts 285°
2026-05-04 18:24 61.59107 -4.06600 21554 ft 339 kts 284°
2026-05-04 18:24 61.59718 -4.11388 21308 ft 338 kts 284°
2026-05-04 18:24 61.60326 -4.16158 21075 ft 337 kts 284°
2026-05-04 18:24 61.60929 -4.20917 20843 ft 337 kts 284°
2026-05-04 18:25 61.61526 -4.25630 20609 ft 336 kts 284°
2026-05-04 18:25 61.62125 -4.30380 20380 ft 335 kts 284°
2026-05-04 18:25 61.62720 -4.35118 20154 ft 335 kts 284°
2026-05-04 18:25 61.63316 -4.39869 19927 ft 334 kts 284°
2026-05-04 18:26 61.63898 -4.44531 19705 ft 334 kts 284°
2026-05-04 18:26 61.64488 -4.49262 19477 ft 333 kts 284°
2026-05-04 18:26 61.65073 -4.53979 19257 ft 333 kts 284°
2026-05-04 18:26 61.65656 -4.58685 19039 ft 332 kts 284°
2026-05-04 18:27 61.66235 -4.63383 18820 ft 332 kts 284°
2026-05-04 18:27 61.66814 -4.68084 18602 ft 331 kts 284°
2026-05-04 18:27 61.67391 -4.72791 18397 ft 331 kts 284°
2026-05-04 18:27 61.67965 -4.77488 18142 ft 330 kts 284°
2026-05-04 18:28 61.68527 -4.82104 17889 ft 330 kts 284°
2026-05-04 18:28 61.69097 -4.86800 17636 ft 330 kts 284°
2026-05-04 18:28 61.69665 -4.91489 17385 ft 330 kts 284°
2026-05-04 18:28 61.70230 -4.96174 17138 ft 330 kts 284°
2026-05-04 18:29 61.70794 -5.00858 16887 ft 329 kts 284°
2026-05-04 18:29 61.71357 -5.05553 16639 ft 329 kts 284°
2026-05-04 18:29 61.71910 -5.10182 16401 ft 329 kts 284°
2026-05-04 18:29 61.72469 -5.14872 16152 ft 329 kts 284°
2026-05-04 18:30 61.73582 -5.24254 15683 ft 329 kts 284°
2026-05-04 18:30 61.74136 -5.28952 15447 ft 329 kts 284°
2026-05-04 18:30 61.74689 -5.33652 15212 ft 329 kts 284°
2026-05-04 18:31 61.75242 -5.38369 14983 ft 330 kts 284°
2026-05-04 18:31 61.75784 -5.43009 14749 ft 330 kts 284°
2026-05-04 18:31 61.76334 -5.47736 14520 ft 330 kts 284°
2026-05-04 18:31 61.76881 -5.52449 14293 ft 330 kts 284°
2026-05-04 18:32 61.77428 -5.57178 14066 ft 331 kts 284°
2026-05-04 18:32 61.77973 -5.61902 13839 ft 331 kts 283°
2026-05-04 18:32 61.78516 -5.66624 13580 ft 331 kts 283°
2026-05-04 18:32 61.79049 -5.71292 13329 ft 330 kts 284°
2026-05-04 18:33 61.79588 -5.76015 13023 ft 329 kts 284°
2026-05-04 18:33 61.80122 -5.80720 12715 ft 328 kts 284°
2026-05-04 18:33 61.80652 -5.85396 12411 ft 327 kts 284°
2026-05-04 18:33 61.81182 -5.90084 12111 ft 326 kts 284°
2026-05-04 18:34 61.81708 -5.94754 11813 ft 326 kts 284°
2026-05-04 18:34 61.82231 -5.99412 11521 ft 325 kts 284°
2026-05-04 18:34 61.82751 -6.04060 11226 ft 324 kts 284°
2026-05-04 18:34 61.83268 -6.08695 10940 ft 323 kts 284°
2026-05-04 18:35 61.83770 -6.13220 10655 ft 314 kts 284°
2026-05-04 18:35 61.84261 -6.17658 10375 ft 303 kts 284°
2026-05-04 18:35 61.84732 -6.21931 10085 ft 292 kts 284°
2026-05-04 18:35 61.85187 -6.26071 9794 ft 283 kts 285°
2026-05-04 18:36 61.85621 -6.30012 9474 ft 274 kts 285°
2026-05-04 18:36 61.86048 -6.33898 9167 ft 266 kts 285°
2026-05-04 18:36 61.86463 -6.37681 8865 ft 259 kts 285°
2026-05-04 18:36 61.86865 -6.41359 8563 ft 253 kts 284°
2026-05-04 18:37 61.87258 -6.44955 8270 ft 247 kts 284°
2026-05-04 18:37 61.87638 -6.48452 8065 ft 239 kts 284°
2026-05-04 18:37 61.88019 -6.51788 8000 ft 225 kts 288°
2026-05-04 18:37 61.88541 -6.54777 7979 ft 218 kts 294°
2026-05-04 18:38 61.89196 -6.57714 7955 ft 219 kts 297°
2026-05-04 18:38 61.89881 -6.60577 8049 ft 213 kts 297°
2026-05-04 18:38 61.90533 -6.63266 8062 ft 196 kts 297°
2026-05-04 18:38 61.91148 -6.65792 7990 ft 193 kts 297°
2026-05-04 18:39 61.91760 -6.68307 7855 ft 194 kts 297°
2026-05-04 18:39 61.92377 -6.70841 7660 ft 193 kts 297°
2026-05-04 18:39 61.92570 -6.71632 7590 ft 192 kts 297°
2026-05-04 18:40 61.93171 -6.74099 7348 ft 187 kts 298°
2026-05-04 18:40 61.93766 -6.76532 7084 ft 183 kts 298°
2026-05-04 18:40 61.94348 -6.78915 6833 ft 180 kts 298°
2026-05-04 18:40 61.94921 -6.81260 6583 ft 177 kts 298°
2026-05-04 18:41 61.95486 -6.83572 6333 ft 174 kts 298°
2026-05-04 18:41 61.96043 -6.85846 6070 ft 175 kts 298°
2026-05-04 18:41 61.96630 -6.88251 5380 ft 195 kts 298°
2026-05-04 18:41 61.97253 -6.90785 5123 ft 191 kts 298°
2026-05-04 18:42 61.97859 -6.93255 4841 ft 185 kts 298°
2026-05-04 18:42 61.98431 -6.95588 4634 ft 172 kts 298°
2026-05-04 18:42 61.98974 -6.97797 4385 ft 164 kts 298°
2026-05-04 18:42 61.99489 -6.99888 4068 ft 161 kts 298°
2026-05-04 18:43 62.00066 -7.02236 3332 ft 182 kts 298°
2026-05-04 18:43 62.00620 -7.04494 3225 ft 167 kts 299°
2026-05-04 18:43 62.01143 -7.06616 2977 ft 154 kts 299°
2026-05-04 18:43 62.01621 -7.08550 2761 ft 142 kts 299°
2026-05-04 18:44 62.02090 -7.10449 2565 ft 146 kts 299°
2026-05-04 18:44 62.02250 -7.11100 2500 ft 144 kts 299°
2026-05-04 18:44 62.02986 -7.14099 2056 ft 134 kts 298°
2026-05-04 18:44 62.03404 -7.15837 1651 ft 130 kts 300°
2026-05-04 18:45 62.03846 -7.17542 1414 ft 130 kts 300°
2026-05-04 18:45 62.04268 -7.19174 1151 ft 124 kts 301°
2026-05-04 18:45 62.04659 -7.20784 898 ft 121 kts 292°
2026-05-04 18:45 62.05052 -7.22406 717 ft 123 kts 295°
2026-05-04 18:46 62.05452 -7.24060 463 ft 124 kts 291°
2026-05-04 18:46 62.05844 -7.25627 304 ft 121 kts 290°
2026-05-04 18:46 62.06194 -7.27097 278 ft 89 kts 300°
2026-05-04 18:46 62.06385 -7.27831 285 ft 31 kts 301°
2026-05-04 18:47 62.06459 -7.28118 281 ft 12 kts 301°
2026-05-04 18:47 62.06523 -7.28119 279 ft 9 kts
2026-05-04 18:47 62.06598 -7.28099 278 ft 9 kts
2026-05-04 18:47 62.06648 -7.28053 281 ft 6 kts 68°
2026-05-04 18:48 62.06654 -7.27983 278 ft 3 kts 34°
2026-05-04 18:48 62.06677 -7.27956 278 ft 5 kts 28°
2026-05-04 18:48 62.06686 -7.27946 278 ft 0 kts 30°